CW3175 Weather Reports


time (UTC)temp
F
wind
direction
speed
knots
gust
knots
rain 1hr
in
rain 24hr
in
rain mn
in
humidity
%
barometer
mb
20150418232252 51 30 3.5 9.6 0.00 0.00 0.00 52 1015.3
20150418230750 52 17 3.5 7.8 0.00 0.00 0.00 52 1015.4
20150418225248 51 328 3.5 9.6 0.00 0.00 0.00 53 1015.4
20150418223748 53 346 3.5 11.3 0.00 0.00 0.00 52 1015.3
20150418222246 53 338 3.5 8.7 0.00 0.00 0.00 52 1015.3
20150418220746 53 351 3.5 12.2 0.00 0.00 0.00 51 1015.1
20150418215237 55 0 3.5 11.3 0.00 0.00 0.00 48 1015.1
20150418213737 55 346 3.5 9.6 0.00 0.00 0.00 49 1015.2
20150418212237 55 313 3.5 8.7 0.00 0.00 0.00 50 1015.2
20150418210736 53 21 3.5 9.6 0.00 0.00 0.00 52 1015.5
20150418205238 53 13 4.3 10.4 0.00 0.00 0.00 52 1015.7
20150418203736 54 344 3.5 9.6 0.00 0.00 0.00 52 1015.7
20150418202234 54 0 2.6 7.8 0.00 0.00 0.00 51 1015.8
20150418200733 54 309 3.5 8.7 0.00 0.00 0.00 51 1016.0
20150418195230 55 351 3.5 9.6 0.00 0.00 0.00 51 1016.2
20150418193729 56 304 3.5 7.8 0.00 0.00 0.00 49 1016.3
20150418192225 56 331 4.3 9.6 0.00 0.00 0.00 50 1016.4
20150418190724 56 320 3.5 9.6 0.00 0.00 0.00 49 1016.5
20150418185225 56 18 4.3 10.4 0.00 0.00 0.00 48 1016.6
20150418183718 56 351 5.2 10.4 0.00 0.00 0.00 49 1016.7
20150418182219 57 320 3.5 9.6 0.00 0.00 0.00 48 1016.7
20150418180714 56 13 5.2 10.4 0.00 0.00 0.00 49 1016.8
20150418175214 56 351 5.2 9.6 0.00 0.00 0.00 48 1017.0
20150418173715 57 0 4.3 9.6 0.00 0.00 0.00 48 1017.2
20150418172214 57 9 4.3 8.7 0.00 0.00 0.00 49 1017.1
20150418170715 58 14 3.5 8.7 0.00 0.00 0.00 47 1017.0
20150418165216 58 351 2.6 9.6 0.00 0.00 0.00 48 1017.0
20150418163711 57 11 4.3 8.7 0.00 0.00 0.00 49 1016.9
20150418162204 58 351 4.3 10.4 0.00 0.00 0.00 51 1016.9
20150418160656 57 327 4.3 8.7 0.00 0.00 0.00 53 1017.2
20150418155155 57 42 1.7 7.8 0.00 0.00 0.00 54 1017.2
20150418153653 55 32 1.7 7.8 0.00 0.00 0.00 56 1017.1
20150418152153 55 0 3.5 8.7 0.00 0.00 0.00 56 1017.3
20150418150649 55 64 6.1 13.0 0.00 0.00 0.00 56 1017.3
20150418145149 55 51 6.1 13.9 0.00 0.00 0.00 56 1017.1
20150418143648 55 30 7.0 15.6 0.00 0.00 0.00 56 1016.7
20150418142148 56 46 5.2 13.9 0.00 0.00 0.00 54 1016.5
20150418140649 58 20 7.8 17.4 0.00 0.00 0.00 53 1016.1
20150418135145 60 351 7.8 16.5 0.00 0.00 0.00 51 1016.0
20150418133645 64 32 7.0 15.6 0.00 0.00 0.00 46 1015.6
20150418132147 65 25 8.7 14.8 0.00 0.00 0.00 44 1015.4
20150418130640 67 34 7.0 14.8 0.00 0.00 0.00 42 1015.2
20150418125138 66 32 1.7 10.4 0.00 0.00 0.00 47 1015.0
20150418123639 64 321 0.0 4.3 0.00 0.00 0.00 58 1015.0
20150418122129 62 240 0.0 0.9 0.00 0.00 0.00 64 1015.0
20150418120607 60 240 0.0 0.0 0.00 0.00 0.00 70 1015.1
20150418115037 59 240 0.0 0.0 0.00 0.00 0.00 72 1015.0
20150418113531 59 240 0.0 0.0 0.00 0.00 0.00 72 1015.0
20150418111939 59 240 0.0 0.0 0.00 0.00 0.00 71 1014.7
20150418110431 59 240 0.0 0.0 0.00 0.00 0.00 70 1014.5
20150418104904 59 240 0.0 0.0 0.00 0.00 0.00 69 1014.5
20150418103401 59 240 0.0 0.0 0.00 0.00 0.00 68 1014.4
20150418101853 60 240 0.0 0.0 0.00 0.00 0.00 66 1014.2
20150418100332 60 240 0.0 0.0 0.00 0.00 0.00 65 1014.1
20150418094817 60 240 0.0 0.0 0.00 0.00 0.00 64 1014.1
20150418093234 61 240 0.0 0.0 0.00 0.00 0.00 62 1014.0
20150418091729 62 240 0.0 0.0 0.00 0.00 0.00 61 1014.1
20150418090223 62 240 0.0 0.0 0.00 0.00 0.00 60 1014.1
20150418084714 62 240 0.0 0.0 0.00 0.00 0.00 59 1014.2
20150418083156 62 240 0.0 0.0 0.00 0.00 0.00 59 1014.0
20150418081655 63 240 0.0 0.0 0.00 0.00 0.00 58 1014.1
20150418080134 63 240 0.0 0.0 0.00 0.00 0.00 58 1014.1
20150418074621 63 240 0.0 0.9 0.00 0.00 0.00 57 1014.0
20150418073119 64 240 0.0 0.0 0.00 0.00 0.00 56 1013.9
20150418071619 64 240 0.0 0.0 0.00 0.00 0.00 55 1013.9
20150418070053 65 240 0.0 6.1 0.00 0.00 0.00 54 1013.9
20150418064544 65 229 0.9 6.1 0.00 0.00 0.00 54 1013.9
20150418063043 64 190 0.0 0.9 0.00 0.00 0.00 54 1014.0
20150418061543 64 185 0.0 0.0 0.00 0.00 0.00 54 1013.7
20150418060029 64 185 0.0 1.7 0.00 0.00 0.00 54 1014.0
20150418054529 63 137 0.0 0.0 0.00 0.00 0.00 55 1013.8
20150418053007 63 137 0.0 0.0 0.00 0.00 0.00 54 1013.7
20150418051445 63 137 0.0 0.0 0.00 0.00 0.00 53 1013.6
20150418045927 64 137 0.0 0.0 0.00 0.00 0.00 52 1013.6
20150418044427 63 137 0.0 0.0 0.00 0.00 0.00 52 1013.6
20150418042919 63 137 0.0 0.0 0.00 0.00 0.00 52 1013.7
20150418041408 62 137 0.0 0.0 0.00 0.00 0.00 53 1013.7
20150418035909 62 137 0.0 0.0 0.00 0.00 0.00 53 1013.9
20150418034351 62 137 0.0 0.0 0.00 0.00 0.00 52 1013.9
20150418032820 62 137 0.0 0.0 0.00 0.00 0.00 52 1013.9
20150418031250 62 137 0.0 0.0 0.00 0.00 0.00 51 1014.0
20150418025740 62 136 0.0 0.0 0.00 0.00 0.00 51 1014.3
20150418024236 62 136 0.0 0.0 0.00 0.00 0.00 50 1014.3
20150418022735 62 136 0.0 0.0 0.00 0.00 0.00 49 1014.2
20150418021226 62 136 0.0 0.0 0.00 0.00 0.00 49 1014.1
20150418015723 62 136 0.0 0.9 0.00 0.00 0.00 48 1014.1
20150418014217 63 136 0.0 3.5 0.00 0.00 0.00 47 1013.9
20150418012708 63 115 0.0 3.5 0.00 0.00 0.00 46 1013.9
20150418011151 64 101 0.0 0.0 0.00 0.00 0.00 46 1013.9
20150418005623 64 101 0.0 0.0 0.00 0.00 0.00 46 1013.7
20150418004123 65 101 0.0 0.0 0.00 0.00 0.00 46 1013.6
20150418002622 64 101 0.0 0.0 0.00 0.00 0.00 46 1013.6
20150418001110 65 101 0.0 2.6 0.00 0.00 0.00 45 1013.9
20150417235548 65 105 0.0 0.0 0.00 0.00 0.00 45 1013.9
20150417234048 65 105 0.0 1.7 0.00 0.00 0.00 45 1014.0